Temp
12 12 12 12 12 12 12 12 12 11 11 11 11 11 11 10 10 10 10 9 9 9 9 9 9 9 10 10 10 10 9 9 9 10 10 10 10 10 10 10 11 11 11 11 11 11 11 11 12 11 11 12 12 12 12 12 12 12 12 13 13 12 13
12 12 12 12 12 12 12 12 11 11 11 11 11 11 11 11 11 10 10 10 10 10 9 10 10 10 10 11 10 10 10 10 9 9 9 9 9 9 9 9 10 10 11 11 10 10 11 11 11 11 11 11 11 11 12 12 12 12 12 13 12 12 12
12 12 12 12 12 12 12 12 11 11 11 11 11 11 11 11 11 10 10 10 10 10 10 10 11 11 11 11 11 11 11 11 10 10 10 9 9 9 9 9 9 9 10 11 10 10 10 11 11 11 11 11 11 11 11 12 12 12 12 13 13 13 12
13 13 12 12 12 12 12 12 11 11 11 11 11 11 11 11 10 10 10 10 10 10 10 10 11 11 11 11 11 11 11 11 11 11 10 10 10 10 10 9 9 9 10 10 9 9 9 10 11 11 11 11 11 11 11 12 12 12 12 13 13 13 13
13 13 13 12 12 12 12 11 11 11 10 11 11 11 11 11 10 10 10 10 10 10 10 10 10 10 11 11 11 11 11 11 11 11 11 11 11 11 11 10 10 10 10 10 9 9 9 9 10 10 11 11 11 11 11 11 12 12 12 12 12 12 12
13 13 13 12 12 12 11 11 11 11 10 11 11 11 10 10 10 10 10 10 10 10 10 10 10 10 10 10 11 11 11 11 11 11 11 11 11 11 11 11 10 10 10 10 10 10 10 9 9 9 10 10 10 11 11 11 11 12 12 12 12 12 12
13 13 13 12 12 12 11 11 11 11 10 10 10 10 10 10 10 10 10 10 10 10 10 10 10 10 10 10 10 10 10 10 11 11 11 11 11 11 11 11 11 10 10 10 10 10 10 10 9 8 9 9 9 10 11 11 12 12 12 12 12 12 12
13 13 13 12 12 12 11 11 11 11 10 10 10 10 10 10 10 10 10 10 10 10 10 10 10 10 10 10 10 10 10 10 10 10 10 10 10 10 10 10 10 10 10 10 10 9 9 10 10 9 9 9 9 10 11 11 12 12 12 12 12 12 12
13 13 13 12 12 12 12 11 11 11 11 10 10 10 10 10 10 10 10 10 10 10 10 10 10 10 10 10 10 10 10 10 10 10 10 10 10 10 10 10 10 10 10 10 10 9 9 9 9 10 10 9 9 10 11 11 12 12 12 12 12 12 12
13 13 13 13 13 13 12 12 11 11 11 10 10 10 10 10 10 10 10 10 10 10 10 10 10 10 10 10 10 10 10 10 10 10 10 10 10 10 10 10 10 10 10 10 9 9 10 9 9 8 8 8 8 8 9 10 11 11 11 11 11 12 12
14 13 13 13 13 13 13 12 12 11 11 11 10 10 10 10 10 10 10 10 10 10 10 10 10 10 10 9 9 9 9 9 9 9 10 9 10 10 10 10 9 9 9 9 9 10 9 10 9 9 8 7 7 7 7 8 9 10 10 10 10 11 11
13 13 13 13 13 13 13 13 12 12 12 11 11 11 10 10 10 10 10 10 10 10 10 10 10 10 10 9 9 9 9 9 9 9 9 9 9 9 9 9 9 9 9 9 9 9 9 9 10 9 8 8 7 7 7 7 7 9 9 9 9 10 10
13 13 13 13 13 13 13 13 13 12 12 12 11 11 11 10 10 10 10 10 10 10 10 10 10 9 9 10 9 9 9 9 9 9 9 9 9 9 9 9 8 8 9 8 7 7 8 8 9 9 8 8 8 8 7 7 7 8 8 8 8 9 9
13 13 13 13 13 13 13 13 12 12 12 12 11 11 11 11 10 10 10 10 10 9 9 9 9 9 9 9 9 9 9 9 8 8 8 8 8 8 8 7 7 7 8 8 7 7 6 6 7 7 6 6 6 7 7 6 7 7 7 7 7 8 8
13 13 13 13 13 13 13 12 12 12 12 12 12 11 11 11 10 10 10 10 9 9 9 9 9 9 9 9 9 9 9 9 9 8 8 8 7 8 8 7 6 6 7 7 7 6 6 6 6 5 5 5 5 6 6 6 6 6 7 7 7 7 7
12 12 12 12 12 12 12 12 12 12 12 12 11 11 11 11 11 10 10 10 9 9 9 9 9 9 9 9 9 9 9 9 9 9 9 8 8 8 8 8 7 7 7 7 7 6 6 6 5 5 5 5 5 5 5 5 6 5 6 6 6 6 6
11 11 11 11 12 12 12 12 12 12 12 11 11 11 11 11 11 10 10 10 10 10 9 9 9 9 9 9 9 9 9 9 9 9 8 8 8 8 8 8 8 8 8 7 7 7 6 5 5 5 5 5 5 5 5 5 5 5 5 5 6 6 6
10 10 11 11 11 11 11 11 11 11 11 11 11 11 11 10 10 10 10 10 10 10 10 10 9 9 9 8 8 8 8 8 8 8 8 8 8 8 8 8 8 8 8 8 8 7 6 6 6 5 5 5 5 5 5 4 4 5 5 5 5 5 5
9 10 10 10 10 11 10 10 11 10 11 11 10 11 10 10 10 10 9 9 10 10 10 10 10 9 9 9 8 8 8 8 8 8 8 8 8 8 8 8 8 8 8 8 8 8 7 7 7 6 6 6 5 5 5 5 4 4 4 5 5 5 5
9 10 10 9 9 10 9 9 9 9 10 9 9 10 11 10 10 10 9 9 9 9 9 9 9 9 9 9 9 8 8 8 8 8 8 8 7 8 8 7 7 7 7 7 7 7 7 7 7 6 6 5 5 4 4 4 4 4 4 5 5 5 5
9 10 10 9 9 9 9 9 9 9 9 8 9 10 11 11 11 10 10 9 9 9 8 8 8 8 9 9 8 8 8 8 8 8 8 8 8 8 8 7 7 7 7 7 7 7 7 6 6 6 5 4 4 4 4 4 4 4 4 4 5 5 5
10 10 10 10 10 9 9 9 9 8 9 9 9 10 10 10 11 10 10 9 9 9 9 8 8 9 9 8 8 7 7 8 7 7 7 7 7 7 7 7 7 7 7 7 7 6 6 6 6 6 6 5 4 3 3 3 3 4 4 4 5 5 5
11 11 11 11 11 10 10 10 10 9 8 8 9 9 8 9 9 9 9 9 9 9 9 9 9 8 8 7 7 7 7 7 7 7 7 7 7 7 7 7 7 7 7 7 7 7 7 7 6 6 6 5 5 4 3 3 3 3 4 4 4 5 5
10 10 11 11 11 11 11 10 11 10 10 9 9 9 9 8 8 8 8 8 8 8 8 8 8 8 7 7 6 6 7 7 7 6 6 6 6 6 6 6 6 6 6 7 7 6 6 6 6 6 6 5 5 5 4 4 3 3 3 3 4 4 4
9 9 10 10 10 10 10 10 11 11 11 11 10 9 9 8 8 8 7 7 8 8 7 8 8 7 7 7 6 6 6 6 6 6 6 6 5 5 5 5 5 5 6 6 6 5 5 5 6 6 6 5 5 5 5 4 4 4 3 3 3 3 4
8 9 9 9 9 10 10 10 10 10 10 11 10 9 9 9 8 7 7 7 7 7 7 7 7 7 6 6 6 6 6 5 5 5 5 5 5 5 5 5 5 5 5 5 5 5 5 5 4 4 5 5 5 5 5 4 4 4 4 3 2 3 3
8 8 8 9 9 9 9 9 10 10 10 10 10 10 9 9 8 7 7 7 7 7 7 7 6 6 6 6 5 5 5 5 5 4 4 4 4 4 4 4 4 4 4 4 4 4 4 4 4 3 3 3 3 3 3 3 3 3 3 3 2 2 2
7 8 8 9 9 9 9 9 9 10 9 9 9 9 8 8 7 7 8 7 7 7 7 6 6 6 6 5 5 5 5 4 4 4 4 4 4 4 4 4 4 4 4 4 4 4 4 4 3 3 3 3 2 2 2 1 1 1 1 1 1 1 1
7 7 7 7 8 8 9 9 9 9 9 8 7 7 7 7 7 8 8 7 7 6 6 6 6 6 5 5 5 4 4 4 4 4 4 4 4 4 4 4 4 3 3 3 3 3 3 3 3 3 2 2 2 1 1 1 1 1 1 0 0 -0 -0
7 6 6 6 7 7 8 8 9 8 8 7 7 7 6 6 6 7 7 7 6 6 6 5 5 5 5 4 4 3 3 3 3 3 3 3 3 3 3 4 4 4 3 3 3 3 3 3 2 2 1 1 0 -0 -0 -0 -0 0 0 -0 0 0 1
6 6 6 6 6 6 7 7 7 7 7 7 7 7 6 6 6 7 7 6 6 5 5 5 5 4 4 4 3 3 2 2 2 2 2 2 2 2 2 3 3 4 3 3 3 3 2 2 1 0 -1 -1 -1 -2 -1 -1 -2 -2 -2 -2 -1 -1 -0
5 5 5 5 5 6 6 6 6 6 6 6 6 6 5 5 7 7 6 5 5 5 5 4 4 4 3 3 3 3 3 2 2 2 2 1 1 1 1 1 1 2 2 2 2 2 2 1 0 -1 -2 -3 -3 -2 -2 -2 -3 -3 -3 -3 -2 -2 -2
5 5 5 5 5 5 5 5 6 6 6 6 5 5 5 6 6 6 5 5 4 4 4 4 3 3 3 3 3 3 3 3 3 2 2 1 0 0 0 -0 -0 -1 -1 -0 1 1 1 0 -1 -1 -3 -3 -3 -3 -3 -3 -3 -3 -3 -3 -3 -3 -3
5 5 4 5 5 5 5 5 5 5 5 5 5 5 5 6 5 5 4 4 3 3 3 3 2 2 2 3 3 3 3 3 3 2 1 1 0 0 -0 -0 -1 -1 -2 -1 -0 -0 -1 -1 -1 -2 -2 -3 -3 -3 -3 -3 -4 -4 -4 -4 -4 -4 -4
4 4 4 4 4 4 5 5 4 4 4 4 4 5 5 5 4 4 3 3 3 2 2 2 2 2 2 3 3 3 3 2 2 2 1 1 0 -0 -0 -1 -1 -1 -1 -0 -0 -1 -1 -2 -2 -2 -2 -2 -2 -3 -3 -4 -4 -5 -5 -5 -5 -5 -4
4 4 4 4 4 4 4 4 4 4 4 4 4 5 4 4 3 2 2 2 2 2 2 2 2 2 2 2 2 2 2 2 2 1 1 1 1 0 -0 -0 -1 -1 -0 -0 -1 -1 -2 -2 -2 -2 -2 -2 -3 -3 -4 -5 -5 -6 -5 -5 -5 -5 -5
4 4 4 4 3 4 4 4 4 4 4 4 4 4 3 2 2 2 2 1 1 1 2 2 2 2 2 2 2 2 1 1 1 1 1 1 1 1 0 0 -0 -0 -0 -0 -0 -1 -1 -1 -2 -2 -2 -3 -3 -4 -5 -5 -6 -6 -5 -5 -5 -5 -5
Height
1533 1533 1533 1534 1535 1535 1535 1535 1535 1535 1535 1535 1535 1534 1534 1534 1534 1534 1534 1534 1535 1535 1535 1535 1534 1534 1534 1534 1534 1535 1535 1536 1536 1537 1537 1538 1538 1537 1538 1538 1538 1539 1540 1540 1540 1541 1542 1542 1542 1543 1543 1544 1544 1544 1544 1545 1546 1546 1545 1545 1546 1547 1547
1532 1532 1533 1534 1534 1535 1535 1535 1535 1535 1535 1535 1535 1535 1535 1535 1535 1535 1535 1535 1535 1535 1535 1535 1535 1534 1534 1534 1534 1535 1535 1535 1535 1536 1537 1538 1538 1538 1538 1538 1538 1539 1540 1540 1540 1540 1541 1541 1542 1542 1542 1542 1542 1542 1542 1542 1543 1544 1544 1544 1544 1545 1546
1531 1532 1533 1533 1534 1534 1535 1535 1535 1535 1535 1536 1536 1536 1536 1536 1535 1535 1535 1535 1535 1536 1536 1535 1535 1535 1535 1535 1535 1535 1535 1535 1536 1536 1536 1537 1537 1537 1538 1538 1539 1540 1540 1540 1540 1540 1540 1541 1541 1541 1541 1540 1540 1540 1540 1540 1541 1541 1542 1542 1542 1542 1543
1530 1531 1532 1532 1533 1534 1534 1535 1535 1535 1536 1536 1536 1536 1536 1536 1536 1536 1536 1536 1536 1536 1536 1536 1535 1535 1535 1535 1535 1535 1535 1536 1536 1536 1536 1536 1536 1537 1537 1538 1538 1538 1539 1539 1540 1540 1540 1541 1541 1541 1541 1540 1540 1539 1538 1538 1539 1539 1539 1540 1539 1539 1540
1529 1530 1531 1532 1533 1533 1534 1534 1535 1535 1535 1536 1536 1536 1536 1536 1536 1536 1536 1536 1536 1536 1536 1536 1536 1536 1536 1536 1536 1536 1536 1536 1536 1536 1536 1536 1536 1536 1536 1537 1537 1537 1537 1538 1538 1538 1539 1539 1539 1539 1540 1540 1539 1538 1538 1537 1537 1537 1537 1537 1537 1538 1538
1528 1529 1530 1531 1532 1533 1534 1534 1535 1535 1535 1535 1536 1536 1536 1536 1536 1537 1537 1537 1537 1537 1537 1537 1537 1536 1536 1536 1536 1536 1536 1536 1536 1536 1536 1536 1536 1536 1536 1536 1536 1536 1536 1536 1537 1537 1537 1537 1538 1538 1538 1538 1537 1537 1537 1536 1536 1536 1535 1536 1537 1537 1538
1527 1529 1529 1530 1531 1532 1533 1533 1534 1535 1535 1535 1535 1536 1536 1536 1536 1537 1537 1537 1537 1537 1537 1537 1537 1537 1536 1536 1536 1536 1536 1536 1536 1535 1536 1535 1535 1535 1535 1535 1536 1536 1536 1535 1536 1536 1536 1536 1536 1537 1537 1536 1536 1535 1535 1535 1535 1535 1535 1535 1536 1536 1537
1526 1528 1529 1530 1530 1531 1532 1533 1533 1534 1535 1535 1535 1535 1535 1536 1536 1536 1536 1536 1536 1536 1536 1536 1536 1536 1536 1536 1536 1536 1536 1535 1535 1535 1535 1535 1535 1535 1535 1535 1535 1535 1535 1535 1535 1535 1535 1534 1534 1535 1535 1535 1534 1534 1534 1534 1534 1534 1534 1534 1535 1535 1535
1525 1526 1527 1528 1529 1530 1531 1532 1532 1533 1534 1534 1534 1534 1535 1535 1535 1536 1536 1536 1536 1536 1536 1536 1536 1536 1536 1536 1536 1536 1535 1535 1535 1535 1535 1535 1535 1535 1535 1535 1535 1535 1534 1534 1534 1534 1534 1533 1533 1533 1532 1533 1533 1533 1532 1532 1533 1533 1533 1533 1533 1533 1533
1523 1525 1526 1527 1528 1529 1530 1530 1531 1532 1533 1533 1533 1533 1534 1534 1535 1535 1535 1535 1535 1535 1535 1535 1535 1535 1535 1535 1535 1535 1535 1535 1535 1535 1534 1534 1534 1534 1534 1534 1534 1534 1534 1533 1533 1533 1532 1532 1532 1532 1531 1531 1531 1531 1531 1531 1531 1531 1531 1531 1531 1531 1531
1522 1523 1524 1525 1526 1527 1528 1529 1530 1530 1531 1532 1532 1532 1532 1533 1534 1534 1534 1534 1535 1535 1535 1535 1535 1535 1535 1535 1535 1535 1535 1535 1535 1534 1534 1534 1534 1533 1533 1533 1533 1533 1533 1532 1532 1532 1532 1531 1531 1531 1531 1530 1530 1530 1530 1529 1529 1529 1529 1529 1529 1529 1529
1520 1521 1522 1523 1524 1525 1526 1527 1528 1528 1529 1530 1530 1530 1531 1531 1532 1533 1533 1533 1533 1534 1534 1534 1534 1534 1534 1534 1534 1534 1534 1534 1534 1534 1534 1533 1533 1533 1533 1532 1532 1532 1531 1531 1531 1530 1530 1530 1530 1530 1530 1529 1529 1528 1528 1528 1527 1526 1526 1526 1526 1526 1526
1517 1519 1520 1521 1522 1522 1524 1524 1525 1526 1527 1528 1529 1529 1529 1530 1531 1531 1532 1532 1532 1532 1532 1533 1533 1533 1533 1533 1533 1533 1532 1533 1533 1533 1533 1532 1532 1532 1532 1531 1531 1531 1530 1530 1530 1529 1529 1528 1528 1528 1528 1528 1528 1527 1526 1526 1525 1524 1524 1523 1522 1522 1522
1515 1516 1517 1518 1519 1520 1521 1522 1523 1524 1524 1526 1526 1527 1528 1528 1529 1530 1530 1531 1531 1531 1531 1531 1531 1532 1532 1532 1532 1532 1532 1532 1532 1531 1531 1531 1530 1530 1530 1530 1530 1529 1529 1529 1529 1529 1528 1527 1527 1526 1526 1526 1526 1525 1525 1524 1523 1522 1521 1521 1519 1519 1518
1512 1513 1514 1516 1517 1518 1519 1519 1520 1521 1522 1523 1524 1525 1526 1527 1528 1528 1529 1529 1530 1530 1530 1530 1530 1530 1530 1530 1530 1530 1530 1531 1531 1531 1530 1530 1529 1529 1529 1529 1529 1528 1527 1527 1527 1527 1527 1527 1526 1526 1526 1525 1525 1524 1523 1522 1521 1519 1518 1518 1517 1516 1515
1509 1509 1511 1512 1514 1515 1516 1517 1518 1519 1520 1521 1521 1523 1524 1524 1525 1527 1527 1528 1528 1528 1528 1528 1528 1528 1528 1528 1528 1528 1528 1529 1529 1529 1529 1529 1529 1528 1528 1527 1527 1527 1526 1526 1525 1525 1525 1525 1525 1525 1525 1524 1523 1522 1521 1520 1519 1517 1516 1515 1514 1514 1513
1506 1506 1507 1509 1510 1511 1513 1514 1514 1515 1517 1518 1518 1520 1521 1522 1523 1524 1524 1525 1525 1525 1526 1526 1526 1526 1527 1526 1526 1526 1526 1527 1527 1527 1527 1527 1527 1527 1526 1526 1526 1525 1525 1524 1524 1524 1524 1523 1523 1523 1523 1522 1521 1520 1519 1517 1516 1515 1514 1513 1512 1511 1511
1504 1503 1504 1505 1507 1508 1509 1510 1511 1511 1513 1514 1515 1516 1517 1518 1520 1521 1521 1522 1522 1523 1523 1523 1524 1524 1524 1524 1524 1524 1524 1524 1525 1525 1525 1525 1525 1525 1524 1524 1524 1524 1523 1523 1522 1522 1522 1521 1521 1520 1520 1520 1520 1519 1517 1516 1514 1513 1512 1511 1510 1509 1507
1502 1501 1501 1503 1504 1504 1506 1507 1507 1508 1509 1510 1511 1511 1512 1514 1515 1516 1517 1518 1519 1519 1520 1520 1521 1522 1522 1522 1522 1522 1522 1522 1522 1522 1522 1522 1522 1522 1522 1522 1522 1521 1521 1521 1520 1520 1519 1519 1518 1518 1517 1517 1517 1516 1515 1514 1513 1512 1510 1509 1507 1506 1505
1499 1499 1500 1501 1501 1501 1502 1504 1504 1505 1506 1506 1506 1506 1508 1510 1511 1512 1513 1514 1515 1516 1517 1518 1519 1520 1520 1520 1520 1520 1520 1520 1520 1519 1519 1519 1519 1519 1519 1519 1519 1519 1518 1518 1517 1517 1516 1516 1515 1514 1514 1513 1513 1513 1512 1511 1510 1509 1508 1506 1505 1504 1503
1498 1498 1499 1498 1498 1498 1499 1500 1501 1502 1503 1503 1503 1503 1505 1506 1507 1508 1508 1509 1510 1512 1513 1515 1516 1517 1518 1518 1518 1517 1517 1517 1517 1517 1517 1517 1517 1517 1517 1517 1516 1516 1516 1515 1515 1514 1513 1513 1512 1511 1511 1511 1510 1510 1509 1508 1508 1506 1505 1504 1502 1502 1501
1497 1497 1496 1496 1496 1496 1496 1497 1498 1498 1499 1499 1500 1500 1500 1501 1502 1503 1504 1505 1507 1507 1507 1508 1510 1512 1514 1514 1515 1515 1514 1515 1515 1515 1515 1515 1515 1515 1515 1514 1514 1514 1514 1513 1512 1511 1510 1510 1509 1508 1508 1508 1507 1506 1506 1505 1505 1504 1503 1501 1500 1499 1498
1495 1494 1494 1494 1494 1494 1494 1494 1494 1495 1496 1496 1496 1497 1497 1498 1499 1499 1500 1502 1503 1503 1503 1503 1505 1507 1510 1511 1512 1512 1511 1512 1512 1512 1513 1512 1512 1512 1512 1512 1511 1510 1510 1510 1509 1508 1508 1507 1506 1505 1504 1504 1503 1503 1502 1502 1501 1501 1500 1498 1497 1496 1495
1492 1492 1492 1492 1492 1492 1492 1492 1492 1492 1493 1493 1493 1493 1493 1495 1496 1496 1496 1497 1498 1500 1500 1500 1501 1504 1506 1508 1509 1509 1509 1509 1509 1510 1510 1510 1510 1509 1509 1509 1508 1507 1506 1506 1505 1504 1503 1502 1502 1501 1500 1499 1499 1498 1498 1497 1497 1497 1496 1495 1494 1493 1491
1489 1489 1489 1489 1489 1490 1490 1490 1490 1490 1490 1490 1490 1489 1490 1491 1492 1493 1493 1494 1495 1496 1496 1497 1498 1501 1502 1504 1505 1506 1506 1506 1506 1506 1507 1507 1507 1507 1506 1506 1505 1504 1503 1503 1502 1501 1499 1498 1496 1496 1495 1495 1494 1494 1493 1493 1492 1492 1492 1491 1490 1489 1488
1486 1486 1486 1486 1486 1486 1487 1487 1487 1488 1488 1488 1487 1487 1487 1488 1488 1490 1490 1490 1491 1492 1492 1494 1496 1497 1499 1500 1502 1503 1503 1503 1503 1504 1503 1504 1504 1503 1503 1503 1502 1501 1500 1499 1498 1498 1496 1494 1492 1491 1489 1489 1488 1487 1487 1487 1487 1487 1486 1485 1484 1483 1483
1483 1483 1483 1483 1483 1483 1483 1483 1484 1484 1484 1484 1484 1484 1484 1485 1485 1486 1486 1487 1488 1488 1489 1491 1493 1494 1496 1497 1499 1500 1500 1500 1500 1501 1501 1501 1501 1500 1500 1500 1499 1498 1497 1496 1495 1494 1493 1491 1489 1488 1486 1484 1483 1482 1481 1481 1481 1480 1480 1479 1477 1476 1477
1481 1480 1480 1480 1480 1480 1480 1480 1480 1480 1481 1481 1481 1481 1481 1482 1482 1483 1483 1484 1485 1485 1486 1488 1490 1491 1493 1495 1496 1497 1497 1497 1498 1498 1498 1498 1497 1497 1497 1496 1495 1495 1494 1493 1491 1490 1489 1488 1486 1484 1482 1481 1479 1479 1478 1477 1476 1476 1475 1474 1472 1471 1471
1478 1477 1477 1477 1477 1476 1477 1477 1477 1477 1477 1477 1478 1478 1479 1479 1479 1479 1480 1481 1481 1481 1483 1486 1487 1489 1491 1492 1494 1495 1494 1494 1495 1495 1495 1494 1494 1493 1493 1492 1492 1491 1490 1489 1487 1485 1484 1483 1481 1479 1478 1476 1475 1473 1472 1472 1471 1471 1470 1469 1468 1467 1466
1475 1474 1474 1474 1474 1473 1473 1473 1474 1474 1474 1474 1475 1475 1476 1476 1475 1476 1476 1476 1477 1478 1481 1483 1484 1486 1488 1489 1491 1492 1492 1492 1493 1492 1492 1491 1490 1490 1489 1488 1488 1487 1486 1485 1483 1481 1479 1478 1476 1475 1473 1471 1470 1468 1467 1467 1466 1464 1463 1462 1461 1461 1460
1471 1471 1471 1471 1471 1470 1470 1470 1470 1470 1471 1471 1472 1472 1473 1473 1472 1472 1473 1473 1474 1476 1478 1480 1482 1484 1485 1487 1488 1489 1490 1491 1491 1490 1490 1489 1488 1487 1485 1484 1483 1482 1481 1480 1478 1476 1475 1474 1472 1470 1468 1466 1465 1463 1463 1463 1461 1460 1459 1457 1455 1454 1454
1468 1468 1467 1467 1467 1467 1467 1467 1467 1467 1468 1469 1469 1470 1470 1470 1469 1469 1470 1471 1472 1475 1477 1479 1480 1482 1483 1484 1485 1487 1488 1488 1488 1488 1488 1487 1486 1484 1483 1480 1478 1476 1475 1474 1473 1472 1471 1470 1468 1466 1464 1462 1460 1458 1458 1458 1457 1456 1455 1453 1451 1450 1449
1464 1464 1464 1464 1464 1464 1463 1463 1463 1464 1464 1465 1466 1466 1466 1466 1466 1467 1468 1469 1472 1474 1476 1478 1479 1480 1481 1483 1484 1485 1486 1486 1486 1485 1484 1484 1482 1481 1480 1478 1476 1474 1470 1468 1468 1467 1466 1465 1463 1461 1459 1457 1455 1454 1454 1453 1452 1451 1449 1447 1447 1446 1445
1461 1461 1461 1460 1460 1460 1460 1460 1460 1460 1460 1461 1462 1463 1463 1464 1464 1465 1466 1468 1471 1473 1475 1476 1477 1479 1480 1481 1482 1483 1483 1483 1482 1482 1481 1480 1479 1478 1477 1476 1475 1472 1468 1465 1464 1463 1462 1460 1458 1456 1454 1452 1450 1449 1449 1447 1446 1445 1443 1442 1441 1440 1439
1458 1457 1457 1457 1457 1457 1457 1457 1457 1456 1456 1457 1459 1460 1461 1461 1462 1464 1466 1468 1470 1471 1473 1475 1476 1478 1479 1479 1480 1481 1481 1480 1479 1478 1477 1476 1475 1475 1474 1472 1471 1468 1464 1461 1460 1458 1456 1454 1452 1450 1448 1446 1445 1444 1443 1441 1440 1439 1438 1436 1436 1434 1434
1454 1453 1453 1453 1453 1453 1453 1453 1453 1452 1453 1454 1456 1458 1459 1460 1462 1464 1466 1467 1469 1471 1472 1474 1476 1477 1478 1478 1478 1478 1478 1477 1476 1475 1474 1473 1472 1470 1469 1467 1465 1462 1459 1457 1455 1453 1451 1449 1447 1445 1443 1442 1440 1439 1438 1436 1435 1434 1433 1432 1431 1430 1429
1450 1450 1450 1450 1449 1449 1449 1449 1449 1449 1451 1452 1454 1455 1457 1459 1462 1464 1466 1467 1469 1471 1472 1474 1475 1476 1476 1477 1476 1476 1476 1475 1474 1472 1471 1469 1467 1466 1464 1462 1459 1457 1454 1452 1450 1447 1445 1443 1441 1440 1438 1437 1436 1434 1433 1431 1430 1429 1428 1427 1426 1425 1424
Wind_Speed
8 9 8 7 7 5 4 4 5 5 6 6 6 6 6 6 6 6 6 6 5 5 5 4 2 2 1 1 2 1 1 1 1 2 3 2 3 6 7 7 8 8 7 7 8 9 9 8 9 11 11 13 15 16 15 14 12 10 12 14 13 12 12
10 9 8 7 6 5 4 4 4 4 5 5 5 5 6 6 6 6 6 6 6 6 5 4 3 3 3 2 1 1 1 1 1 1 2 2 2 3 3 3 4 4 6 7 7 7 8 8 8 8 9 10 13 14 14 16 16 17 17 16 14 13 12
13 11 9 8 7 6 5 4 3 4 4 4 4 4 4 4 4 4 4 4 5 5 4 4 4 4 4 4 4 3 2 1 1 1 2 2 3 3 2 3 3 3 4 5 6 5 6 8 8 8 9 11 13 13 15 17 17 20 21 19 20 19 16
15 13 11 9 8 7 6 5 4 4 4 3 3 3 3 3 2 2 2 3 4 4 5 4 4 5 5 5 5 5 5 4 3 2 1 2 3 4 3 4 4 5 5 5 6 5 5 6 8 9 9 9 12 13 16 18 19 22 23 22 21 20 19
15 14 12 10 9 7 7 6 6 6 5 4 4 3 3 2 1 0 1 2 3 4 4 4 3 4 4 5 5 6 7 7 6 6 5 4 3 3 3 3 4 5 6 7 7 7 6 6 7 8 8 9 10 11 12 15 18 19 20 19 17 15 16
16 14 12 11 9 8 8 8 8 7 7 6 5 4 4 3 2 2 2 2 2 2 2 2 2 2 3 4 4 5 6 7 7 7 7 6 5 5 4 3 3 4 6 7 8 8 8 8 7 8 8 9 10 11 11 13 14 14 14 14 13 13 14
17 16 14 12 10 9 9 9 9 8 8 7 6 6 5 4 4 4 3 3 3 3 3 2 1 2 2 3 4 5 5 6 6 6 6 6 6 6 5 5 4 4 6 7 8 8 9 9 7 8 9 9 11 12 11 11 10 10 10 9 10 11 12
19 17 15 13 12 11 10 10 10 9 9 8 8 8 7 6 6 5 5 5 5 5 4 3 2 1 2 2 3 4 5 5 5 6 6 5 5 5 5 4 4 5 6 6 6 7 8 10 9 9 10 9 10 10 10 9 9 9 9 8 9 10 11
20 19 17 15 14 12 11 11 11 10 10 9 10 10 9 8 7 7 7 7 7 6 6 5 3 2 1 1 2 3 4 5 6 7 7 7 6 5 5 4 4 5 5 5 6 6 7 8 10 10 11 10 9 10 9 9 8 7 7 6 6 7 7
21 20 19 18 16 14 13 12 12 12 11 11 12 11 10 10 9 9 9 9 9 8 8 7 5 4 3 3 3 3 4 5 6 7 7 8 8 7 7 6 5 5 6 5 6 6 7 7 7 8 9 9 9 10 10 11 9 7 7 7 8 7 7
21 21 21 20 18 17 16 15 14 14 13 13 14 13 12 11 11 11 11 11 11 10 9 8 8 7 5 5 5 5 4 4 5 6 6 7 7 7 7 7 7 7 7 7 7 7 7 8 8 7 7 8 9 10 10 12 13 12 11 10 9 8 8
23 22 21 21 21 20 19 18 17 17 15 15 16 16 15 14 13 12 13 13 12 12 12 11 10 8 7 7 7 7 7 6 6 6 7 7 7 7 7 8 7 7 9 10 10 10 10 9 9 8 8 8 9 11 11 12 14 14 12 11 11 11 12
25 24 23 22 21 21 21 20 20 19 18 17 17 18 17 17 16 15 14 15 15 14 14 13 12 10 10 9 9 9 10 8 7 8 8 9 9 8 8 10 9 9 11 11 10 11 12 12 11 10 9 9 10 12 13 12 15 16 14 14 17 17 17
28 27 26 25 23 22 21 21 21 21 20 20 19 19 19 18 18 17 16 16 16 16 16 15 14 13 12 12 11 11 11 10 8 8 9 9 9 9 9 9 9 10 13 12 11 11 10 11 12 11 10 9 10 11 13 13 16 17 17 16 17 16 16
32 31 30 28 26 25 24 23 22 22 21 21 20 20 20 20 19 19 18 18 17 18 18 18 17 16 15 15 14 13 12 11 10 10 10 9 9 11 11 9 8 11 14 14 13 11 8 9 10 9 9 10 10 11 12 14 16 17 19 18 17 17 17
31 32 32 32 30 29 28 27 25 24 23 23 22 21 21 21 21 20 20 19 20 20 20 20 19 18 17 17 16 16 14 13 13 13 12 11 10 11 13 12 12 13 15 15 15 13 11 10 9 9 10 11 12 13 14 16 18 18 19 20 19 17 16
24 26 27 28 29 30 30 30 30 29 27 26 26 25 24 23 22 22 22 22 22 22 22 22 21 20 19 19 18 17 16 15 14 14 13 13 13 13 14 14 14 15 16 17 17 15 12 11 11 11 11 12 13 14 15 17 19 19 18 19 20 19 19
18 20 23 25 27 29 29 30 31 31 29 28 28 28 27 25 23 22 23 24 24 25 25 24 23 22 21 20 19 18 17 16 16 16 15 15 15 15 15 16 16 17 18 18 17 16 14 14 15 14 13 13 12 13 14 16 18 19 20 20 20 21 22
15 17 21 23 25 25 24 24 26 26 26 25 26 28 29 27 26 25 24 25 26 26 27 27 26 24 24 23 21 20 20 18 18 17 17 16 16 17 17 17 18 19 19 20 20 19 18 18 18 17 17 16 15 15 16 17 18 20 21 21 21 20 21
13 16 18 18 18 18 17 18 19 20 20 19 21 26 28 27 27 28 28 27 27 27 27 27 25 24 25 25 25 24 23 22 21 20 19 18 18 18 19 19 19 20 20 21 21 21 21 21 21 20 20 19 18 17 17 18 18 19 20 21 22 21 20
9 11 13 12 14 14 14 15 16 17 17 16 18 22 24 24 25 28 30 30 29 29 28 27 25 25 26 27 27 26 25 24 23 22 22 21 20 20 20 20 21 21 22 22 22 22 22 22 22 22 21 20 19 18 18 18 18 19 20 21 22 21 20
8 9 9 8 9 11 11 12 13 15 16 17 18 20 20 22 24 26 28 30 31 33 33 33 31 31 30 30 28 27 26 25 24 23 22 22 21 21 21 22 23 23 23 23 23 23 24 23 23 23 22 21 21 20 19 19 19 19 19 20 21 20 20
11 11 11 11 10 10 11 12 12 12 13 15 16 17 17 17 19 22 25 28 32 35 36 36 35 33 31 30 28 28 27 26 25 24 23 22 22 22 22 22 24 25 26 26 25 25 25 24 24 24 24 23 23 22 22 21 21 20 20 21 22 21 21
14 14 14 15 14 14 15 15 14 14 14 14 15 16 17 16 17 19 22 26 32 36 37 37 36 34 33 31 29 28 27 26 25 24 23 22 21 21 22 23 24 26 28 28 28 28 27 27 26 25 25 25 25 25 25 26 26 25 24 23 23 22 23
14 15 15 16 16 16 17 18 18 17 17 17 15 16 18 18 17 17 19 24 29 34 37 37 35 33 32 31 30 28 26 25 24 23 21 21 20 20 22 23 25 27 28 28 28 28 29 29 29 29 28 28 27 27 27 28 29 29 28 27 26 25 24
14 14 15 16 17 17 18 19 19 19 19 20 18 16 16 18 18 17 19 24 28 32 35 35 34 32 31 30 28 26 25 24 22 20 20 20 21 22 23 25 26 27 28 29 29 29 29 29 29 30 31 31 31 30 29 29 29 30 31 31 32 32 29
16 16 17 17 18 19 19 19 19 19 19 20 21 20 18 19 18 17 20 25 29 32 34 34 34 32 30 28 26 24 24 23 20 19 20 21 22 24 25 26 26 27 27 28 29 29 29 29 29 30 30 30 30 29 30 30 29 29 30 31 34 36 35
17 18 19 19 20 20 20 20 20 20 19 19 19 18 16 18 19 19 21 26 31 34 35 35 34 32 29 27 25 23 22 21 19 20 22 23 24 25 26 26 27 27 28 28 29 29 29 29 30 31 31 31 31 31 30 30 27 25 24 25 28 29 28
19 18 18 18 19 20 20 21 20 20 21 19 17 15 14 16 18 21 22 26 32 36 36 34 33 30 28 26 22 20 19 19 19 20 22 24 26 26 26 27 26 26 28 28 28 30 30 29 29 31 32 32 32 32 31 30 29 28 27 28 29 28 26
20 18 17 17 18 19 20 21 21 20 21 19 16 16 15 15 18 22 25 29 34 37 36 34 32 29 26 23 18 15 15 15 16 19 22 23 25 26 27 28 27 27 28 28 28 30 30 28 29 30 30 31 31 30 30 28 28 29 30 32 34 35 35
21 19 18 17 17 18 19 21 20 19 19 17 16 16 16 16 19 23 25 30 36 38 36 33 30 25 22 19 17 14 13 12 13 17 19 20 22 23 26 28 30 30 29 28 28 28 27 26 28 27 26 25 26 26 26 25 24 24 24 27 29 31 34
21 20 19 19 18 18 19 20 19 17 16 16 17 18 17 18 21 23 26 31 35 36 33 29 25 21 19 18 16 15 15 15 16 17 18 18 19 21 24 27 29 29 29 29 29 28 26 26 26 25 23 22 23 24 23 22 21 21 20 21 22 23 24
21 21 20 19 18 18 18 19 18 17 16 16 17 18 19 19 21 24 27 31 33 30 27 24 21 18 17 16 16 16 16 17 18 19 19 19 20 22 23 22 21 22 26 29 30 29 27 27 27 26 24 23 24 25 23 21 21 23 24 24 23 23 23
20 20 20 19 19 19 18 18 17 17 19 19 18 19 20 21 22 25 28 30 29 25 21 18 17 15 15 15 16 16 16 17 18 19 20 22 22 22 22 20 18 20 25 29 30 29 29 28 28 28 28 27 28 28 28 28 27 27 28 28 27 26 26
20 20 19 18 19 19 18 17 17 19 21 20 19 20 21 21 22 27 29 27 24 21 17 15 14 14 14 15 15 15 15 16 18 19 22 24 24 23 23 23 22 24 27 30 30 30 30 28 28 29 30 30 31 30 30 30 28 26 25 25 24 24 24
20 19 18 19 19 19 18 18 19 20 20 18 18 20 20 20 23 26 26 23 20 17 15 14 13 12 12 13 13 14 15 16 18 20 21 23 25 25 26 25 25 26 28 29 29 29 29 27 27 28 28 27 27 27 26 27 26 25 25 24 24 23 22
21 20 20 21 19 18 19 19 20 20 18 17 18 19 21 24 27 26 23 20 17 15 13 11 10 9 10 10 12 13 15 16 18 19 21 23 25 26 26 25 25 27 28 28 29 29 28 26 25 24 24 23 23 24 24 24 24 24 24 24 24 24 23
Wind_Direction
168 180 181 169 161 158 142 120 104 95 90 93 99 102 106 107 107 107 104 105 101 91 92 98 101 105 118 205 205 190 203 177 163 203 209 209 236 251 235 218 228 231 227 228 229 236 244 255 254 241 244 248 240 240 242 238 237 243 251 254 255 257 259
177 184 187 184 181 174 164 150 129 113 104 106 108 109 109 106 104 102 97 95 91 85 82 76 73 78 70 66 79 83 171 216 228 185 189 201 215 238 238 233 243 240 235 240 242 244 250 260 259 247 249 246 239 242 245 243 245 248 251 256 256 253 253
188 190 191 196 199 192 188 183 160 141 129 124 122 120 117 115 104 92 83 76 70 71 67 51 49 56 55 54 54 50 59 58 292 239 210 221 239 245 236 239 250 242 239 248 259 271 266 264 266 267 267 261 258 258 252 249 252 254 253 253 257 258 257
195 197 200 205 209 207 209 208 196 180 166 156 153 144 139 137 119 85 61 46 43 46 48 43 37 37 40 44 47 46 42 41 36 10 307 275 271 267 243 232 238 240 237 235 244 260 268 266 269 272 274 273 272 272 266 260 257 257 258 259 263 267 269
201 202 207 214 217 219 220 219 210 202 198 194 187 182 183 180 177 104 10 12 15 25 36 42 41 38 41 42 44 46 42 35 34 31 22 10 346 319 288 259 256 259 254 245 244 251 253 253 263 270 272 276 277 277 276 271 267 266 264 263 265 270 274
206 207 210 217 226 227 223 225 222 213 212 215 214 213 212 211 225 255 289 308 328 351 3 23 43 47 49 49 46 42 39 32 25 23 21 18 14 7 358 334 302 283 277 274 269 267 262 255 258 271 275 276 277 276 277 277 277 278 273 264 258 257 260
208 210 211 214 225 226 223 232 232 217 215 223 226 228 231 228 232 245 259 275 291 306 319 334 7 42 49 42 36 34 31 23 17 15 11 8 5 1 358 352 336 314 305 305 302 295 288 278 265 264 272 278 279 279 279 277 273 272 271 263 253 250 252
211 213 214 214 222 226 228 239 240 225 219 220 221 228 237 238 241 248 255 266 276 284 294 306 324 360 50 38 15 13 14 8 3 1 358 357 354 351 349 345 334 322 315 314 313 308 303 301 293 282 281 286 289 287 282 279 275 268 263 261 259 255 254
214 215 217 219 223 226 231 241 245 239 228 218 222 233 240 241 245 249 254 262 269 277 284 293 307 318 333 348 338 340 348 348 347 347 345 343 343 341 341 337 325 317 312 307 304 299 296 301 304 301 297 293 290 290 291 289 285 278 269 269 272 263 255
217 219 222 225 227 229 235 241 245 247 239 227 231 242 244 243 246 248 251 258 265 272 279 286 294 304 312 310 303 310 321 327 333 337 336 336 339 341 343 345 340 332 326 321 313 306 301 299 296 297 299 296 288 286 291 292 288 281 276 275 276 268 259
222 223 226 230 232 233 237 241 244 249 248 240 241 247 247 245 247 249 252 257 261 267 272 277 283 291 298 300 295 293 295 304 312 319 325 329 335 339 343 347 348 346 342 341 336 330 326 319 312 301 291 288 283 277 276 282 285 283 280 278 277 273 267
227 228 229 233 236 237 239 242 245 249 251 249 247 248 249 249 249 249 254 259 261 264 267 268 273 280 285 290 293 292 291 296 300 307 318 324 329 335 338 341 347 346 344 346 344 340 337 331 327 318 299 287 281 275 271 273 278 282 282 277 271 267 268
234 234 234 235 238 242 243 245 247 250 252 252 250 250 251 252 254 254 255 259 262 264 265 266 267 270 274 281 286 287 292 300 303 306 313 320 325 329 334 339 340 338 341 346 341 334 334 330 329 327 313 301 292 288 284 277 275 278 280 279 278 279 279
242 241 240 240 241 244 247 248 250 251 253 254 252 252 252 252 255 256 256 258 261 263 265 266 267 268 269 274 276 278 286 294 295 297 306 314 319 322 330 337 332 328 334 338 335 329 322 317 320 322 312 301 293 289 288 283 280 282 285 285 285 286 284
247 247 247 246 247 248 249 250 251 251 253 254 254 254 255 254 254 254 255 257 258 261 264 265 266 267 267 270 274 275 278 280 278 281 291 298 303 310 320 327 321 318 324 329 331 328 311 301 303 297 286 284 279 276 277 279 281 283 287 289 288 287 287
251 252 252 252 252 252 252 253 254 255 255 255 255 255 255 256 256 254 254 256 257 259 261 262 263 265 265 268 273 275 276 275 273 277 282 284 287 296 307 314 313 314 320 324 325 324 315 306 299 283 276 277 277 277 276 279 282 283 285 289 291 289 287
252 253 255 256 257 256 256 256 257 258 259 258 257 256 256 256 256 255 254 254 255 258 259 260 262 263 264 266 269 272 275 275 275 276 279 281 285 291 297 304 306 309 314 317 319 320 314 304 297 290 284 281 281 283 282 284 287 285 282 285 287 287 285
250 250 250 252 254 256 257 258 260 261 261 260 259 258 255 252 249 249 251 252 253 257 260 260 262 263 264 265 266 269 273 275 274 275 276 279 284 289 293 298 302 305 309 312 314 314 308 302 301 297 291 284 277 275 275 279 283 282 280 281 282 285 287
250 252 250 249 249 251 253 256 257 259 260 259 258 257 255 252 249 245 243 245 248 253 257 259 260 260 261 264 266 269 272 273 273 272 273 277 281 285 290 295 299 303 307 310 311 311 308 306 305 302 298 293 286 279 274 274 276 278 279 280 280 282 285
250 252 251 249 248 248 249 249 249 251 252 248 247 253 256 256 254 249 244 243 243 247 251 252 252 253 257 262 265 266 268 269 270 269 270 274 279 284 289 294 298 303 307 309 310 311 310 309 307 304 302 299 295 289 283 279 278 276 276 277 278 279 281
253 251 250 248 249 248 247 246 245 243 241 238 243 254 258 255 253 250 247 243 241 242 242 240 242 250 257 261 261 262 263 263 264 265 267 270 275 280 286 290 295 300 305 308 309 308 308 307 305 302 299 295 290 285 281 279 277 276 276 276 277 278 279
263 265 268 268 265 259 253 248 243 240 240 245 252 255 251 247 250 249 244 242 241 240 238 238 244 250 254 255 255 255 256 258 259 261 264 268 273 277 281 286 292 296 300 303 305 304 304 303 302 299 297 293 287 282 278 275 273 273 273 273 274 276 276
271 268 269 271 272 272 270 265 259 253 249 248 250 249 243 238 242 246 244 242 241 238 237 242 247 246 247 249 249 249 252 255 256 258 262 267 272 277 282 288 294 299 301 302 302 301 302 302 301 299 297 293 287 281 275 271 270 270 270 271 272 272 272
288 280 274 270 267 268 271 274 274 269 262 255 249 249 248 237 233 242 243 240 239 238 238 243 245 244 245 246 245 246 251 253 254 257 261 267 273 280 287 293 298 301 303 304 305 305 304 303 301 298 295 292 288 282 277 273 271 268 266 267 269 268 269
294 288 284 278 271 267 266 267 269 270 270 269 259 250 248 243 238 238 234 234 239 240 240 242 243 241 242 242 242 244 248 250 254 259 264 270 278 285 291 295 299 301 303 304 305 306 306 305 304 301 297 293 289 284 279 275 273 270 267 265 265 264 264
292 286 285 282 278 274 270 266 265 265 265 267 263 251 244 242 237 230 229 236 240 240 240 241 238 236 238 239 240 242 245 249 255 262 270 277 283 288 292 297 300 302 304 305 305 306 306 305 303 301 299 296 293 290 286 280 275 272 268 264 261 260 260
289 285 284 283 281 278 275 271 270 267 263 260 258 253 244 238 231 226 232 239 239 238 240 237 233 234 237 237 237 240 245 253 260 268 275 281 286 291 295 299 302 303 304 304 304 303 302 300 298 295 293 292 290 288 286 284 281 278 274 269 265 263 261
288 286 284 283 281 278 275 272 271 269 264 255 251 249 243 235 229 227 235 239 237 237 236 231 230 234 235 235 237 241 248 257 265 273 280 286 291 296 299 301 302 303 302 301 300 298 296 295 293 291 289 287 285 283 279 277 275 272 271 269 269 269 265
289 284 280 278 277 276 275 273 270 266 260 252 245 242 238 232 229 229 234 237 235 234 230 227 229 232 233 234 236 241 251 262 271 279 285 291 295 298 299 300 301 301 299 299 298 295 295 294 291 289 288 287 286 284 279 275 270 265 260 256 255 256 256
289 282 276 273 271 272 273 272 269 263 256 248 241 239 235 228 226 229 232 233 232 229 225 224 226 226 227 230 233 241 256 268 277 283 288 293 296 298 299 299 299 298 297 297 295 293 293 294 291 289 287 285 284 282 279 277 275 272 269 263 257 255 255
285 280 275 271 269 267 267 267 264 259 251 242 237 238 233 226 227 232 235 234 230 226 221 219 220 220 223 230 235 243 257 267 275 283 289 293 294 295 297 299 300 299 298 298 297 294 294 294 293 290 286 284 281 278 277 276 275 273 274 273 271 268 266
281 276 273 270 268 266 266 264 258 251 246 241 238 235 228 226 231 236 237 231 225 220 216 214 214 218 225 233 241 250 262 271 279 284 288 290 290 292 297 301 302 303 303 302 300 297 296 296 295 292 287 282 278 276 276 276 275 273 273 273 273 273 272
278 275 271 269 268 267 266 263 256 248 238 231 230 228 227 233 238 236 230 222 214 210 209 209 211 218 227 238 250 261 271 278 283 287 289 291 292 295 298 298 297 298 299 299 299 300 300 300 297 293 287 280 277 277 277 275 270 267 267 268 268 267 267
272 270 268 268 267 265 263 260 253 241 231 228 231 233 234 239 237 225 214 206 200 198 200 203 209 220 235 250 262 270 277 282 286 290 293 295 297 298 296 292 289 286 287 290 295 299 301 300 297 292 286 280 279 280 278 274 271 267 265 266 267 266 266
267 266 265 264 262 260 258 252 243 239 240 242 242 239 237 235 224 208 196 190 189 189 192 201 214 229 244 259 270 278 284 287 290 293 296 298 299 297 293 292 290 287 289 295 301 303 303 301 296 290 286 284 284 283 279 275 273 270 268 267 267 266 265
265 262 261 260 259 256 249 242 242 247 247 242 235 231 225 213 199 187 179 176 179 185 193 208 226 242 257 271 282 288 291 292 294 296 298 299 300 298 296 296 295 295 299 304 304 302 300 297 293 289 288 286 283 281 278 274 270 268 266 265 264 262 262
262 260 260 258 254 245 238 239 245 245 237 228 222 210 192 182 177 172 170 172 180 192 206 221 237 255 270 281 288 291 294 296 299 301 303 305 305 302 299 299 301 303 306 306 304 303 302 300 298 297 294 290 287 282 276 271 267 266 265 262 260 260 261